TJS-11

Last updated on Mon Oct 14 2024 00:02:42 GMT+0000 (Coordinated Universal Time)

1 59020U 24037A 24287.50194750 -.00000376 00000+0 00000+0 0 9991 2 59020 5.1313 321.7907 0005887 265.8426 95.8981 1.00267911 2459
UTC large
Height (km)
Speed (km/s)
/
Latitude / Longitude
Inclination (degrees)
Orbital Period (minutes)
Azimuth
Elevation
Range (km)
Doppler Factor

Next 0 passes for location: London (51.5072 / 0.1276)

Sorry there are no passes over London.